Temperature
19 19 19 19 19 18 18 18 18 17 17 17 17 17 16 16 16 16 16 16 16 15 15 15 15 15 15 15 15 15 15 15 14 14 15 15 15 15 15 15 15 14 14
19 19 19 18 18 18 18 17 17 17 17 17 17 16 16 16 16 16 16 15 15 15 15 15 15 15 15 15 15 15 14 14 14 14 14 14 14 14 14 14 14 14 14
19 19 18 18 18 18 18 17 17 17 17 17 16 16 16 16 15 15 15 15 15 15 15 15 15 15 14 14 14 14 14 14 14 14 14 14 14 14 14 14 14 14 14
19 19 18 18 18 18 17 17 17 17 16 16 16 16 16 15 15 15 15 15 15 15 14 14 14 14 14 14 14 14 14 14 14 14 14 14 14 14 14 13 14 14 14
19 19 19 18 18 17 17 17 17 16 16 16 16 16 15 15 15 15 15 15 14 14 14 14 14 14 14 14 14 14 13 13 13 13 13 13 13 13 13 13 13 13 13
19 19 18 18 17 17 17 17 16 16 16 16 15 15 15 15 15 14 14 14 14 14 14 14 14 14 14 14 13 13 13 13 13 13 13 13 13 13 13 12 12 12 12
18 18 18 17 17 17 16 16 16 16 16 15 15 15 15 15 14 14 14 14 14 14 14 14 13 13 13 13 13 13 13 13 13 13 12 13 12 12 12 12 12 12 12
18 17 17 17 17 16 16 16 16 15 15 15 15 15 14 14 14 14 14 13 13 13 13 13 13 13 13 13 13 13 13 13 13 12 12 12 12 12 12 12 12 12 12
17 17 17 16 16 16 16 16 15 15 15 15 14 14 14 14 14 14 13 13 13 13 13 13 13 13 13 13 13 13 13 13 12 12 12 12 12 12 12 12 12 11 11
17 17 16 16 16 16 15 15 15 15 14 14 14 14 14 14 14 14 13 13 13 13 13 13 13 13 12 12 12 12 12 12 12 12 12 12 12 12 12 12 11 11 11
17 16 16 16 16 15 15 15 14 14 14 14 14 13 13 13 13 13 13 13 13 12 12 12 12 12 12 12 12 12 12 12 12 12 12 12 12 12 11 11 11 11 11
16 16 16 15 15 15 14 14 14 14 13 13 13 13 13 13 13 13 13 12 12 12 12 12 12 12 12 12 12 12 11 11 11 11 11 11 11 11 11 11 11 11 11
16 15 15 15 15 14 14 14 13 13 13 13 13 13 13 13 13 12 12 12 12 12 12 12 12 12 12 12 11 11 11 11 11 11 11 11 11 11 11 11 11 11 11
15 15 15 14 14 14 13 13 13 13 13 13 12 12 12 12 12 12 12 12 12 11 11 11 11 11 11 11 11 11 11 10 10 10 10 10 11 11 11 11 11 10 10
15 15 14 14 14 13 13 13 13 13 13 12 12 12 12 12 12 12 11 11 11 11 11 11 11 11 11 11 10 10 10 10 10 10 10 10 10 10 10 10 10 10 10
14 14 14 13 13 13 13 13 13 12 12 12 12 12 12 11 11 11 11 11 11 11 11 11 10 10 10 10 10 10 10 10 10 9 9 9 9 9 9 10 10 10 10
14 13 13 13 13 13 12 12 12 12 12 12 12 12 11 11 11 11 11 11 11 10 10 10 10 10 10 10 10 10 9 9 9 9 9 9 9 9 9 9 9 9 9
13 13 13 12 12 12 12 12 12 12 12 12 12 11 11 11 11 11 11 11 10 10 10 10 10 10 10 9 9 9 9 9 9 9 9 9 9 9 9 9 9 9 9
13 13 12 12 12 12 11 11 11 11 11 11 11 11 11 11 11 10 10 10 10 10 10 9 9 9 9 9 9 9 9 9 9 9 9 8 8 8 9 9 9 9 9
12 12 12 12 12 11 11 11 11 11 11 11 11 11 11 10 10 10 10 10 10 10 9 9 9 9 9 9 9 9 9 9 8 8 8 8 8 8 8 8 8 8 8
12 12 11 11 11 11 11 11 11 10 10 10 10 10 10 10 10 10 10 9 9 9 9 9 9 9 9 9 9 8 8 8 8 8 8 8 8 8 8 8 8 8 8
12 11 11 11 11 11 11 10 10 10 10 10 10 10 10 10 10 9 9 9 9 9 9 9 9 9 9 8 8 8 8 8 8 7 7 7 7 7 8 8 7 8 8
11 11 11 11 11 10 10 10 10 10 10 10 10 10 10 9 9 9 9 9 9 9 9 9 9 8 8 8 8 8 8 7 7 7 7 7 7 7 7 7 7 7 7
11 11 10 10 10 10 10 10 10 10 10 9 9 9 9 9 9 9 9 9 9 8 8 8 8 8 8 8 7 7 7 7 7 7 7 7 7 7 7 7 7 7 7
10 10 10 10 10 10 9 9 9 9 9 9 9 9 9 9 9 9 9 8 8 8 8 8 8 8 8 7 7 7 7 6 7 6 6 6 6 6 7 6 6 7 7
10 10 9 9 9 9 9 9 9 9 9 9 9 9 9 9 8 8 8 8 8 8 8 8 8 7 7 7 7 7 6 6 6 6 6 6 6 6 6 6 6 6 6
Wind_Speed
6 5 4 4 4 4 3 3 3 2 2 2 2 2 2 2 2 2 2 2 2 2 2 2 3 2 2 2 2 2 3 3 4 4 2 2 2 3 3 3 3 3 4
5 5 4 4 3 3 4 4 3 3 3 3 2 2 3 3 2 3 3 2 2 2 2 2 3 2 3 2 2 3 3 4 4 5 3 2 2 3 3 3 3 3 4
5 5 4 3 4 4 4 4 3 3 3 2 2 3 3 3 3 3 3 3 3 3 3 3 3 3 3 3 3 3 3 3 3 4 4 2 2 2 2 3 3 3 4
5 5 5 5 5 4 3 3 3 3 3 3 3 3 3 4 3 3 3 3 3 3 3 3 3 3 4 4 3 3 3 3 3 3 3 3 2 2 2 2 3 3 3
5 5 5 5 4 3 3 2 2 2 3 3 3 2 2 3 3 3 3 3 3 2 2 3 3 3 3 3 3 3 2 2 2 2 3 3 3 2 3 2 3 4 4
5 5 4 3 3 3 3 2 2 2 1 1 2 2 3 3 3 2 2 2 2 2 3 3 3 3 4 4 4 4 3 3 3 3 3 4 5 4 3 3 3 3 3
4 4 3 3 3 3 2 2 2 2 2 1 2 2 2 3 3 2 2 2 3 3 3 3 3 3 3 3 4 4 4 4 4 4 5 5 5 4 4 4 4 4 5
2 2 2 3 3 3 3 2 2 2 2 2 2 2 3 3 3 2 2 2 2 3 3 3 4 4 4 3 3 3 4 4 5 4 5 6 6 5 5 5 5 4 4
3 3 3 4 4 4 3 3 3 2 2 2 2 3 3 3 3 2 1 1 2 4 4 4 4 4 5 3 2 3 5 5 5 5 5 6 6 6 4 3 3 3 4
3 4 3 4 4 4 4 3 3 3 3 2 2 2 3 3 4 3 2 2 2 3 3 3 4 4 5 4 3 3 5 6 5 5 4 4 4 3 4 4 4 4 3
1 1 1 2 3 3 2 2 2 2 2 1 2 2 2 3 4 3 2 2 3 3 3 3 4 5 5 5 5 4 6 5 4 4 4 4 4 3 3 3 4 4 4
1 2 1 1 1 1 2 1 1 1 1 1 2 3 3 3 3 3 3 3 3 3 3 4 4 5 5 5 4 4 4 3 2 3 3 4 4 4 4 4 5 5 6
2 1 1 0 0 1 2 2 1 1 2 2 2 3 3 3 3 4 3 3 3 3 4 5 5 5 4 3 3 3 3 2 3 3 4 5 5 5 4 4 4 3 4
2 1 1 1 1 1 1 2 3 3 3 3 3 3 3 3 3 2 2 2 2 3 3 4 4 4 3 3 3 2 2 2 3 4 5 5 4 4 3 3 3 3 3
1 1 1 1 2 2 2 3 4 4 5 5 4 4 3 4 4 4 3 2 2 2 2 2 2 2 3 3 3 3 3 3 3 4 4 5 4 4 4 3 3 3 3
1 1 1 1 1 1 1 2 2 2 4 5 5 4 4 5 5 4 4 3 3 2 0 2 2 3 3 4 4 4 4 4 4 4 4 4 5 5 5 4 3 4 4
3 2 2 2 2 2 2 2 2 3 2 2 4 5 5 5 5 4 3 2 1 1 1 2 3 4 4 4 4 4 4 4 4 4 4 4 5 5 4 5 4 4 4
2 2 2 2 2 3 3 3 2 2 3 3 3 4 5 5 4 4 2 1 1 1 2 3 4 4 4 4 4 4 4 4 3 4 4 4 4 4 5 5 5 5 5
2 2 2 2 2 3 3 3 3 3 3 3 3 3 3 3 3 2 2 1 3 3 3 4 4 4 4 4 4 4 4 3 4 4 4 4 4 4 5 5 5 6 5
2 3 2 2 2 2 2 3 3 3 3 3 3 3 1 0 1 1 2 2 3 4 4 4 4 4 4 4 4 3 3 4 4 4 4 4 4 4 5 6 5 5 5
2 2 2 2 3 3 3 4 4 4 4 4 4 4 4 2 3 3 3 3 4 4 4 4 4 4 4 3 3 3 4 4 4 4 3 4 4 4 5 5 5 5 5
2 2 2 2 3 3 3 4 4 4 4 5 4 3 4 3 3 4 4 4 4 4 3 3 3 3 3 3 3 3 4 4 4 4 4 4 4 5 4 4 4 4 4
2 2 2 2 2 3 3 3 3 3 4 4 4 3 3 3 4 4 4 4 3 3 3 3 3 3 3 3 3 3 4 5 5 5 5 5 4 4 4 4 5 5 4
1 2 2 3 3 3 3 3 3 3 4 4 3 4 4 4 4 4 4 3 3 3 3 3 3 4 4 3 3 4 4 5 5 4 5 5 5 5 4 4 5 5 4
2 2 3 3 3 3 3 3 3 3 3 3 4 4 4 3 3 4 3 3 4 4 4 3 3 4 4 4 4 4 4 5 5 4 3 4 5 5 4 5 4 4 4
2 3 3 3 3 3 3 3 3 4 4 4 4 4 4 3 3 3 3 3 3 3 3 3 4 4 4 4 4 4 3 3 4 4 3 3 4 4 4 4 4 4 3
Wind_Direction
179 177 173 174 169 171 185 198 200 207 205 210 220 231 246 257 252 221 229 225 227 260 275 269 278 283 277 276 248 228 226 220 246 272 263 280 273 287 297 288 282 275 275
180 172 177 175 169 183 202 209 205 210 216 217 219 226 238 246 242 227 235 230 228 249 265 269 281 284 280 278 262 248 240 226 229 263 276 270 267 272 278 279 287 283 278
160 164 171 181 189 200 209 212 210 214 225 231 225 234 244 246 240 237 231 232 234 243 252 259 271 273 278 276 266 259 255 247 234 247 269 266 272 276 286 287 289 290 285
155 164 181 201 208 209 207 209 217 222 226 236 242 248 250 244 240 242 238 234 239 247 255 261 265 259 261 265 262 258 258 260 254 252 264 272 277 279 269 283 295 292 287
168 178 191 199 198 194 195 208 213 221 233 241 245 258 263 249 246 243 237 236 240 259 274 275 272 277 282 274 275 264 255 257 263 264 270 275 278 276 271 270 278 292 281
176 191 194 184 187 195 194 198 210 223 236 244 256 258 268 271 277 246 224 225 231 245 271 289 289 289 297 299 294 282 259 249 251 253 266 267 270 265 264 258 263 277 282
184 191 190 187 190 205 202 196 221 231 236 253 271 274 279 287 301 289 248 217 234 242 253 276 293 302 298 290 298 305 294 279 253 239 250 258 260 250 246 257 253 254 262
189 198 191 186 195 199 191 197 234 241 236 244 256 269 276 289 304 292 269 220 246 259 257 255 268 286 290 287 289 302 297 288 275 261 249 257 259 253 237 241 255 268 273
199 211 209 198 197 196 198 203 216 222 242 254 260 263 266 285 298 283 239 233 255 271 276 274 270 277 290 292 283 293 301 302 295 286 273 270 267 262 245 236 243 257 277
218 218 211 198 193 196 206 211 219 215 232 247 266 273 266 278 291 280 225 222 253 278 294 294 284 281 288 282 265 270 283 291 299 302 300 302 290 273 249 229 232 243 262
229 178 178 188 193 198 207 220 212 206 217 250 287 305 299 291 299 283 233 216 240 262 278 288 290 293 287 279 264 256 262 273 282 287 294 300 302 294 280 252 235 230 242
106 111 131 213 217 185 178 208 191 181 205 250 276 298 299 296 295 282 257 235 233 242 262 274 283 295 294 292 280 276 281 287 287 294 296 295 295 295 293 283 258 243 240
113 130 167 209 243 192 190 194 194 207 218 241 252 270 287 295 300 297 288 280 264 256 272 278 293 300 299 295 295 297 299 295 291 288 285 284 283 284 289 293 281 261 260
135 168 185 190 234 262 231 212 209 215 224 232 246 258 274 285 287 291 289 289 293 286 293 303 309 313 316 313 317 317 305 284 272 275 283 287 295 294 287 287 289 288 280
162 190 207 220 228 244 254 243 232 227 220 222 232 234 242 267 268 251 245 268 270 273 299 317 327 331 332 331 327 323 324 313 291 284 286 292 297 295 291 292 280 280 267
194 226 237 244 242 240 252 303 304 263 246 232 228 227 243 245 258 262 251 262 272 258 309 295 294 290 289 296 302 307 309 305 300 292 288 288 290 290 291 293 284 275 278
210 223 238 247 242 234 232 239 283 314 309 266 249 242 242 248 252 251 249 266 255 183 254 280 283 280 280 282 283 286 290 296 296 295 295 295 291 287 285 286 288 285 285
217 225 225 233 238 237 236 241 244 258 286 300 290 261 255 247 245 243 226 97 327 282 263 271 277 280 280 279 281 284 287 292 293 296 296 298 301 297 290 285 282 284 284
222 227 224 229 236 244 248 249 252 258 262 275 295 295 268 252 245 242 204 231 254 266 270 273 275 279 281 280 278 279 282 284 288 291 294 299 303 301 299 296 293 290 282
245 243 230 228 241 250 255 253 254 254 258 261 263 268 288 26 301 287 256 249 253 262 270 275 277 277 274 272 273 277 284 288 289 286 295 302 302 296 296 297 297 296 291
248 255 248 244 244 246 246 246 248 249 253 258 257 244 215 224 236 249 255 251 249 256 261 268 272 273 271 272 272 276 282 287 288 289 293 296 299 299 298 296 294 292 291
246 246 249 254 259 259 257 252 250 253 257 260 268 263 226 223 231 237 244 250 251 255 252 249 259 266 267 266 265 268 275 282 288 289 287 287 292 295 297 298 299 296 294
280 283 284 282 271 264 263 260 257 256 256 255 256 260 251 243 244 243 243 246 246 250 250 247 256 266 268 261 258 258 265 275 281 283 286 288 290 291 291 295 299 297 298
275 274 280 287 283 273 270 272 270 267 264 260 257 257 256 253 256 257 253 248 244 247 245 242 248 256 265 269 272 270 274 283 286 276 276 279 285 286 285 287 291 293 294
271 269 272 274 273 271 268 269 274 276 273 271 269 265 260 254 255 256 254 250 248 248 249 247 249 256 261 265 272 282 298 299 292 286 277 277 279 283 285 285 286 290 290
265 265 268 270 269 266 262 266 275 278 274 272 271 268 262 257 256 255 251 249 251 253 255 252 251 255 263 266 273 292 302 303 306 303 287 282 284 286 289 287 291 290 291
Height
1509 1510 1511 1512 1514 1515 1516 1517 1517 1517 1517 1517 1517 1517 1516 1516 1516 1516 1515 1515 1515 1515 1514 1514 1513 1513 1512 1511 1511 1510 1510 1509 1507 1507 1507 1507 1506 1506 1506 1505 1505 1505 1504
1506 1508 1509 1510 1512 1513 1513 1514 1514 1514 1514 1514 1514 1514 1513 1513 1513 1513 1513 1512 1512 1512 1511 1511 1510 1510 1509 1508 1508 1507 1507 1506 1505 1504 1503 1503 1503 1503 1502 1501 1501 1501 1501
1504 1506 1508 1508 1509 1510 1511 1511 1512 1512 1512 1512 1511 1510 1510 1510 1510 1510 1510 1509 1509 1509 1508 1508 1507 1506 1506 1505 1505 1504 1504 1503 1502 1501 1500 1500 1499 1499 1498 1498 1497 1497 1497
1502 1503 1505 1507 1507 1508 1508 1508 1509 1509 1509 1509 1508 1507 1507 1507 1507 1507 1506 1506 1506 1505 1505 1504 1504 1503 1503 1502 1502 1501 1500 1500 1499 1498 1497 1496 1495 1495 1495 1494 1493 1493 1493
1500 1501 1502 1504 1505 1505 1505 1505 1506 1506 1506 1506 1505 1504 1504 1503 1503 1503 1503 1503 1503 1502 1502 1501 1501 1500 1500 1499 1499 1498 1497 1496 1495 1494 1493 1492 1492 1491 1491 1490 1490 1489 1489
1497 1498 1500 1501 1502 1502 1502 1502 1503 1503 1503 1503 1502 1502 1501 1500 1500 1500 1500 1499 1499 1499 1499 1498 1498 1498 1497 1496 1496 1495 1494 1493 1492 1491 1490 1489 1488 1488 1487 1487 1486 1485 1484
1495 1496 1498 1499 1499 1500 1500 1500 1500 1500 1500 1499 1499 1499 1498 1497 1497 1497 1497 1496 1497 1496 1496 1495 1495 1494 1494 1493 1492 1491 1490 1489 1488 1487 1486 1486 1485 1485 1484 1483 1483 1482 1481
1494 1495 1495 1496 1497 1497 1497 1497 1498 1497 1497 1497 1496 1496 1495 1495 1494 1494 1494 1494 1493 1493 1493 1492 1491 1491 1490 1490 1488 1487 1487 1486 1485 1484 1483 1482 1482 1481 1481 1480 1479 1478 1477
1492 1493 1493 1494 1494 1495 1494 1495 1495 1495 1495 1494 1493 1493 1492 1492 1491 1491 1491 1490 1490 1489 1489 1489 1488 1487 1487 1486 1485 1484 1483 1482 1481 1480 1479 1478 1478 1477 1477 1476 1475 1474 1472
1490 1491 1492 1492 1492 1492 1493 1493 1493 1493 1492 1492 1491 1490 1490 1489 1488 1488 1488 1487 1486 1486 1486 1485 1485 1484 1483 1482 1481 1480 1478 1477 1477 1476 1475 1474 1474 1473 1472 1472 1470 1469 1468
1488 1488 1489 1490 1490 1490 1490 1490 1490 1490 1490 1489 1489 1488 1487 1486 1486 1485 1485 1484 1483 1483 1482 1481 1481 1480 1479 1479 1478 1476 1475 1474 1473 1472 1471 1470 1469 1468 1467 1467 1466 1465 1464
1486 1486 1487 1488 1488 1488 1488 1488 1488 1487 1487 1486 1486 1485 1484 1483 1482 1482 1481 1481 1480 1480 1478 1478 1477 1476 1475 1474 1473 1472 1471 1470 1469 1468 1467 1466 1465 1464 1463 1462 1461 1460 1460
1484 1485 1485 1486 1486 1486 1485 1485 1485 1484 1484 1483 1483 1482 1481 1481 1480 1479 1478 1478 1477 1477 1476 1475 1474 1473 1472 1470 1469 1468 1467 1466 1465 1464 1462 1461 1461 1460 1459 1458 1457 1456 1455
1483 1483 1483 1484 1483 1483 1483 1483 1482 1482 1481 1480 1479 1479 1478 1477 1477 1476 1475 1475 1474 1473 1472 1471 1471 1469 1468 1467 1465 1464 1463 1462 1461 1460 1459 1458 1457 1455 1454 1453 1452 1451 1450
1481 1481 1481 1481 1481 1480 1480 1480 1479 1479 1478 1477 1477 1476 1475 1474 1474 1474 1473 1472 1471 1470 1469 1468 1467 1466 1464 1463 1462 1461 1459 1458 1457 1456 1455 1453 1452 1451 1450 1449 1448 1447 1446
1478 1478 1478 1478 1477 1476 1477 1476 1476 1476 1475 1475 1474 1474 1473 1473 1472 1471 1470 1469 1468 1467 1466 1464 1463 1462 1461 1459 1458 1457 1456 1455 1454 1452 1451 1450 1448 1447 1446 1445 1444 1443 1441
1476 1475 1475 1475 1474 1474 1473 1473 1472 1472 1472 1471 1471 1470 1470 1469 1469 1468 1467 1466 1465 1464 1462 1461 1460 1459 1457 1456 1455 1454 1453 1452 1451 1449 1448 1446 1445 1444 1442 1441 1440 1439 1437
1473 1473 1472 1472 1471 1471 1470 1469 1468 1468 1467 1466 1467 1466 1465 1465 1465 1464 1463 1462 1461 1460 1459 1457 1456 1455 1454 1453 1452 1451 1450 1449 1447 1446 1445 1443 1441 1440 1438 1437 1436 1435 1433
1470 1470 1469 1468 1468 1468 1467 1466 1465 1465 1464 1463 1462 1462 1461 1461 1460 1460 1459 1459 1457 1456 1455 1454 1453 1452 1451 1450 1449 1448 1447 1445 1444 1443 1441 1440 1438 1436 1435 1433 1432 1431 1430
1467 1466 1466 1465 1464 1464 1463 1462 1461 1461 1460 1459 1458 1458 1457 1457 1456 1456 1456 1455 1454 1453 1452 1451 1450 1449 1448 1447 1446 1445 1443 1442 1440 1439 1438 1436 1435 1433 1431 1429 1428 1427 1425
1464 1463 1462 1462 1461 1460 1459 1459 1458 1457 1456 1455 1455 1455 1454 1453 1453 1453 1453 1452 1451 1450 1449 1448 1447 1446 1444 1443 1442 1441 1440 1439 1437 1436 1434 1433 1431 1430 1428 1426 1425 1423 1422
1461 1460 1459 1458 1458 1457 1456 1455 1454 1454 1453 1452 1451 1451 1450 1450 1450 1449 1449 1448 1448 1447 1446 1445 1444 1443 1441 1440 1439 1438 1436 1435 1434 1432 1431 1429 1428 1426 1425 1423 1422 1420 1418
1458 1457 1456 1455 1454 1454 1453 1452 1451 1450 1449 1448 1448 1447 1447 1446 1445 1445 1444 1444 1443 1443 1443 1441 1440 1439 1438 1437 1436 1434 1433 1432 1430 1429 1427 1426 1424 1423 1421 1420 1418 1417 1416
1455 1454 1453 1452 1451 1450 1449 1448 1447 1446 1445 1444 1444 1443 1443 1442 1441 1441 1440 1440 1439 1439 1438 1437 1436 1435 1434 1433 1432 1431 1430 1428 1427 1426 1424 1423 1421 1419 1418 1417 1415 1414 1413
1451 1450 1450 1449 1448 1447 1446 1445 1443 1442 1441 1440 1440 1439 1439 1438 1437 1437 1436 1436 1435 1434 1434 1433 1432 1431 1430 1429 1428 1427 1426 1425 1424 1422 1421 1419 1418 1416 1415 1413 1412 1411 1410
1447 1447 1446 1445 1445 1443 1442 1441 1440 1439 1437 1436 1436 1435 1434 1434 1433 1432 1432 1432 1431 1431 1430 1429 1428 1427 1426 1425 1424 1423 1422 1421 1420 1419 1417 1416 1414 1413 1411 1410 1409 1408 1408